GW5360 Weather Reports


Display with metric or nautical units.
time (UTC)temp
F
wind
direction
speed
MPH
gust
MPH
rain 1hr
in
rain 24hr
in
rain mn
in
humidity
%
barometer
mb
20260507114510 68 194 1.0 4.0 0.00 0.00 0.00 78 1018.0
20260507113019 68 194 1.0 3.0 0.00 0.00 0.00 83 1018.1
20260507111521 68 194 1.0 2.0 0.00 0.00 0.00 83 1018.3
20260507110030 68 194 1.0 3.0 0.00 0.00 0.00 81 1018.5
20260507104508 68 194 1.0 3.0 0.00 0.00 0.00 82 1018.6
20260507103012 69 194 1.0 2.0 0.00 0.00 0.00 82 1018.7
20260507101517 69 194 2.0 3.0 0.00 0.00 0.00 82 1018.9
20260507100024 69 194 1.0 3.0 0.00 0.00 0.00 81 1019.0
20260507094507 69 194 1.0 3.0 0.00 0.00 0.00 83 1019.0
20260507093023 69 194 2.0 4.0 0.00 0.01 0.00 81 1019.2
20260507091528 70 194 2.0 4.0 0.00 0.01 0.00 81 1019.3
20260507090022 70 194 1.0 3.0 0.00 0.01 0.00 83 1019.3
20260507084531 70 194 1.0 2.0 0.00 0.01 0.00 84 1019.3
20260507083009 70 194 1.0 3.0 0.00 0.01 0.00 84 1019.2
20260507081514 70 194 1.0 3.0 0.00 0.01 0.00 84 1019.2
20260507080020 71 194 0.0 2.0 0.00 0.01 0.00 87 1019.0
20260507074525 72 194 0.0 2.0 0.00 0.01 0.00 88 1019.2
20260507073028 72 194 0.0 1.0 0.00 0.01 0.00 88 1019.1
20260507071512 72 194 0.0 2.0 0.00 0.01 0.00 87 1018.9
20260507070018 72 194 0.0 2.0 0.00 0.01 0.00 87 1018.7
20260507064524 72 194 0.0 1.0 0.00 0.01 0.00 87 1018.6
20260507063036 72 194 0.0 0.0 0.00 0.01 0.00 86 1018.4
20260507061532 72 194 0.0 2.0 0.00 0.01 0.00 86 1018.3
20260507060032 73 194 0.0 0.0 0.00 0.01 0.00 86 1018.1
20260507054520 73 194 0.0 2.0 0.00 0.01 0.00 85 1017.9
20260507053024 73 194 0.0 2.0 0.00 0.01 0.00 84 1017.8
20260507051526 73 194 0.0 0.0 0.00 0.01 0.00 83 1017.8
20260507050034 73 194 0.0 2.0 0.00 0.01 0.00 82 1017.7
20260507044519 74 194 0.0 2.0 0.00 0.01 0.00 83 1017.3
20260507043022 74 194 0.0 2.0 0.00 0.01 0.00 82 1017.1
20260507041524 75 194 0.0 2.0 0.00 0.01 0.00 81 1016.7
20260507040028 75 194 0.0 2.0 0.00 0.01 0.00 80 1016.5
20260507034527 75 194 0.0 2.0 0.00 0.01 0.00 80 1016.4
20260507033020 75 194 1.0 2.0 0.00 0.01 0.00 79 1016.2
20260507031524 76 194 0.0 2.0 0.00 0.01 0.00 79 1016.2
20260507030024 76 194 0.0 2.0 0.00 0.01 0.00 77 1016.1
20260507024528 77 194 0.0 2.0 0.00 0.01 0.00 78 1016.1
20260507023022 77 194 0.0 2.0 0.00 0.01 0.00 75 1016.0
20260507021520 77 194 1.0 3.0 0.00 0.01 0.00 74 1016.0
20260507020033 77 194 1.0 2.0 0.00 0.01 0.00 72 1016.1
20260507014526 77 194 0.0 2.0 0.00 0.01 0.00 80 1016.1
20260507013045 76 194 1.0 3.0 0.00 0.01 0.00 81 1016.2
20260507011522 77 194 1.0 3.0 0.00 0.01 0.00 80 1016.2
20260507010005 77 194 1.0 4.0 0.00 0.01 0.00 79 1016.1
20260507004509 77 194 1.0 2.0 0.00 0.01 0.00 80 1016.2
20260507003014 77 194 1.0 4.0 0.00 0.01 0.00 79 1016.5
20260507001525 77 194 1.0 3.0 0.00 0.01 0.00 79 1016.6
20260507000003 77 194 2.0 4.0 0.00 0.01 0.00 80 1016.7
20260506234513 77 194 1.0 3.0 0.00 0.01 0.00 80 1016.8
20260506233015 77 194 1.0 4.0 0.00 0.01 0.00 81 1017.1
20260506231518 77 194 1.0 3.0 0.00 0.01 0.00 79 1017.2
20260506230028 78 194 1.0 4.0 0.00 0.01 0.00 79 1017.4
20260506224508 78 194 1.0 4.0 0.00 0.01 0.00 79 1017.7
20260506223010 77 194 1.0 4.0 0.00 0.01 0.00 79 1017.7
20260506221514 77 194 1.0 3.0 0.00 0.01 0.00 80 1017.7
20260506220028 78 194 1.0 3.0 0.00 0.01 0.00 78 1017.7
20260506214525 77 194 1.0 5.0 0.00 0.01 0.00 80 1017.8
20260506213008 77 194 1.0 3.0 0.00 0.01 0.00 78 1017.9
20260506211522 77 194 1.0 4.0 0.00 0.01 0.00 80 1018.1
20260506210028 77 194 1.0 5.0 0.00 0.01 0.00 79 1018.3
20260506204522 77 194 1.0 3.0 0.00 0.01 0.00 78 1018.1
20260506203026 77 194 0.0 3.0 0.00 0.01 0.00 79 1018.2
20260506201512 77 194 1.0 5.0 0.00 0.01 0.00 77 1018.2
20260506200033 77 194 1.0 3.0 0.00 0.01 0.00 77 1018.3
20260506194522 77 194 0.0 2.0 0.00 0.01 0.00 74 1017.9
20260506193028 77 194 0.0 2.0 0.00 0.01 0.00 73 1018.0
20260506191511 76 194 0.0 2.0 0.00 0.01 0.00 75 1018.0
20260506190014 76 194 0.0 2.0 0.00 0.01 0.00 77 1018.1
20260506184519 75 194 0.0 2.0 0.00 0.01 0.00 73 1018.1
20260506183025 74 194 0.0 2.0 0.00 0.01 0.00 83 1018.1
20260506181526 72 194 0.0 2.0 0.00 0.01 0.00 86 1018.2
20260506180017 71 194 0.0 2.0 0.00 0.01 0.00 85 1018.2
20260506174518 69 194 1.0 2.0 0.00 0.01 0.00 87 1018.2
20260506173025 68 194 1.0 3.0 0.00 0.01 0.00 85 1017.8
20260506171525 67 194 1.0 2.0 0.00 0.01 0.00 83 1017.7
20260506170027 66 194 2.0 3.0 0.00 0.01 0.00 84 1017.2
20260506164517 65 194 2.0 3.0 0.00 0.01 0.00 85 1017.1
20260506163025 65 194 1.0 4.0 0.00 0.01 0.00 85 1016.8
20260506161527 65 194 2.0 3.0 0.00 0.01 0.00 85 1016.9
20260506160016 64 194 2.0 3.0 0.00 0.01 0.00 85 1016.7
20260506154519 65 194 2.0 4.0 0.00 0.01 0.00 87 1016.5
20260506153022 65 194 2.0 4.0 0.00 0.01 0.00 87 1016.3
20260506151507 65 194 2.0 3.0 0.00 0.01 0.00 87 1016.2
20260506150010 65 194 2.0 3.0 0.00 0.01 0.00 87 1016.1
20260506144514 65 194 2.0 4.0 0.00 0.01 0.00 88 1016.3
20260506143026 65 194 2.0 4.0 0.00 0.01 0.00 88 1016.2
20260506141504 65 194 2.0 4.0 0.00 0.01 0.00 88 1016.3
20260506140006 66 194 2.0 3.0 0.00 0.01 0.00 87 1016.4
20260506134513 66 194 2.0 3.0 0.00 0.01 0.00 88 1016.4
20260506133020 66 194 2.0 3.0 0.00 0.01 0.00 89 1016.3
20260506131521 66 194 2.0 4.0 0.00 0.01 0.00 90 1016.5
20260506130010 67 194 1.0 3.0 0.00 0.01 0.00 90 1016.4
20260506124510 67 194 2.0 4.0 0.00 0.01 0.00 90 1016.6
20260506123019 67 194 2.0 3.0 0.00 0.01 0.00 91 1017.0
20260506121521 67 194 2.0 3.0 0.00 0.01 0.00 91 1017.0
20260506120035 67 194 2.0 3.0 0.00 0.01 0.00 91 1016.6